sat.trackr.live / text

‹ back to catalog

STARLINK-4757

NORAD 53824 · 2022-114G

PAYLOAD ACTIVE UNKNOWN

§ Identity

Operator
Country
US
Launch date
2022-09-19
Launch site
AFETR
Launch vehicle
Mass (kg)
RCS (m²)

Purposes: comms

External: N2YO · Heavens-Above · Gunter

§ Orbital elements

Epoch: 2026-05-24T21:21:56.238336Z

Period
95.44 min
Inclination
53.2150°
Eccentricity
0.0001378
Mean motion
15.08840680 rev/d
Perigee alt
538.8 km
Apogee alt
540.7 km
Semi-major
6,917.9 km
B*
3.6795e-5
RAAN
321.4500°
Arg perigee
82.6427°
Mean anomaly
277.4722°
Rev number
20,425

§ Raw data

STARLINK-47571 53824U 22114G   26144.89023424  .00000298  00000+0  36795-4 0  99932 53824  53.2150 321.4500 0001378  82.6427 277.4722 15.08840680204257

JSON: /api/v1/satellites/53824 · /tle

For live sub-satellite position, see the globe view (requires WebGL).

§ Visibility from observer

Set your observer location to see the next 7 days of passes ≥ 10°. The values pass through the URL so the page stays shareable.

No JS? Fill the form by hand. The geolocation button needs JavaScript.